Flag for U.S.A. Weather past 2 weeks in Birmingham, Alabama, U.S.A.

Now
62 °F

Passing clouds.


Feels Like: 62 °F
Forecast: 63 / 84 °F
Wind: No wind

Location: Birmingham International Airport

Current Time: Sep 18, 2014 at 5:18:15 AM

Latest Report: Sep 18, 2014 at 4:53 AM


Visibility: 10 mi

Pressure: 29.94 "Hg

Humidity: 83%

Dew point: 57 °F

Location of BirminghamLocation

Historic Weather in Birmingham — Graph

°F

Birmingham temperature yesterday

Maximum temperature yesterday: 85 °F (at 3:53 PM)
Minimum temperature yesterday: 67 °F (at 11:53 PM)
Average temperature yesterday: 75 °F

Past Weeks' High & Low Weather Summary

 TemperatureHumidityPressure
High93 °F (Sep 11, 3:53 PM)97% (Sep 4, 12:53 AM)30.20 "Hg (Sep 4, 12:53 AM)
Low62 °F (Sep 14, 5:53 AM)42% (Sep 17, 3:53 PM)29.92 "Hg (Sep 17, 5:53 PM)
Average78 °F75%30.05 "Hg
* Reported Sep 3 3:53 AM — Sep 18 3:53 AM, Birmingham, Weather by CustomWeather, © 2014

Note: Actual official high and low records may vary slightly from our data, if they occured in-between our weather recording intervals... More about our weather records

Advertising

Birmingham weather history for previous 24 hours

 ConditionsComfort  
Time TempWeatherWind HumidityBarometerVisibility
3:53 AM
Sep 18
63 °FPassing clouds.No wind84%29.93 "Hg10 mi
2:53 AM65 °FPassing clouds.No wind78%29.94 "Hg10 mi
1:53 AM66 °FPassing clouds.No wind73%29.95 "Hg10 mi
12:53 AM68 °FPassing clouds.No wind70%29.95 "Hg10 mi
11:53 PM
Sep 17
67 °FPassing clouds.No wind71%29.96 "Hg10 mi
10:53 PM69 °FClear.No wind66%29.96 "Hg10 mi
9:53 PM69 °FClear.3 mph68%29.96 "Hg10 mi
8:53 PM73 °FClear.8 mph59%29.95 "Hg10 mi
7:53 PM70 °FClear.No wind71%29.93 "Hg10 mi
6:53 PM75 °FScattered clouds.5 mph58%29.93 "Hg10 mi
5:53 PM81 °FScattered clouds.8 mph49%29.92 "Hg10 mi
4:53 PM83 °FScattered clouds.9 mph43%29.93 "Hg10 mi
3:53 PM85 °FPartly sunny.13 mph42%29.92 "Hg10 mi
2:53 PM84 °FPartly sunny.10 mph49%29.93 "Hg10 mi
1:53 PM84 °FPartly sunny.10 mph49%29.94 "Hg10 mi
12:53 PM83 °FPartly sunny.6 mph55%29.96 "Hg10 mi
11:53 AM82 °FPassing clouds.8 mph56%29.97 "Hg10 mi
10:53 AM79 °FPassing clouds.5 mph58%29.98 "Hg10 mi
9:53 AM77 °FPassing clouds.3 mph62%29.99 "Hg10 mi
8:53 AM74 °FPassing clouds.6 mph71%30.00 "Hg10 mi
7:53 AM70 °FPartly sunny.5 mph87%30.00 "Hg7 mi
6:53 AM69 °FFog.5 mph90%29.99 "Hg5 mi
5:53 AM68 °FLow clouds.5 mph93%29.98 "Hg7 mi
Weather by CustomWeather, © 2014

See weather overviewHow to use our weather pages